Showing default

GALILEO 9 (205), 40889

Orbit data source: Space-Track

GALILEO 9 (205), 40889 is a payload satellite owned by GNSS Agency (ESA) that was launched on Fri, 11 Sep 2015 UTC via a SOYUZ-ST-B launch vehicle from the French Guiana (FRGUI). Payload-class satellites include a variety of spacecraft equipped with specific instruments for various scientific and technological missions. These include communications satellites like Starlink; space stations such as the ISS; scientific satellites like the Hubble; Earth observation satellites from companies like Planet Labs, Umbra, and HawkEye 360; GPS; miniature CubeSats for education and research; and military/defense satellites.

Loading next visibility...
Identifier
40889, 2015-045A
Orbit
Active
Country
Flag of ESAESA
Related business
Manufacturer
OHB
Mission
Operational Civil Navigation
Bus & Motor
GALILEOSAT, AOCS
Mass
733 kg wet, 660 kg dry
Launch date (UTC)
2015-09-11 (10 years ago)
Launch vehicle
SOYUZ-ST-B
Launch site
French Guiana (FRGUI)
Object type
Payload
Rocket body
Debris
Shape & HBR
Box + 2 Pan, 7.4 m
Radar Cross Section
9.223 m², Large (>1 m²)

Expand to show TLE details & history
Last TLE update: 3 days ago

TLE from 3 days ago
0 GALILEO 9 (205)
1 40889U 15045A   25258.71474583  .00000020  00000-0  00000-0 0  9997
2 40889  55.0385 229.1863 0003716  15.8640 344.1199  1.70473053 62334
Epoch: 2025-09-15T17:09Z
TLE epoch observation values (Epoch: 2025-09-15T17:09:14.039Z)
Latitude
-0.00005°
Longitude
-23.04466°
Altitude
23,211.985 km
Speed
3.671 km/s
True Right ascension
15h 16m 43s
True Declination
0° 00' 00"
Sunlit
Object was in daylight at epoch
Visualization orbit readout
Latitude
Unknown
Longitude
Unknown
Altitude
Unknown
Speed
Unknown
Apparent Right ascension
Unknown
Apparent Declination
Unknown
Sunlit
N/A
Visualization observer readout
Local Sidereal Time
16:26:04
Azimuth
Unknown
Elevation
Unknown
Doppler factor
Unknown
Orbital elements
Apogee altitude
23,233.299 km
Perigee altitude
23,211.3 km
Semi-major axis
29,600.437 km
Eccentricity
0.00037
Inclination
55.0385°
RAAN
229.1863°
Arg. of periapsis
15.864°
True anomaly
344.10824°
Mean anomaly
344.1199°
Eccentric anomaly
344.11407°
Mean motion
0.42618 °/min
Orbital period
844.71 mins
BSTAR
0
Loading maneuver chart data...
Computing Atmospheric mass density...
Loading historical data...
Loading historical data...
Loading historical data...
Loading historical data...
Loading historical data...
Loading historical data...
Loading historical data...
Other satellites on launch #45 in the year 2015 (2015-09-11 UTC)

Documentation

Showing up to 5 results
|